Orbital Elements at Epoch 2459200.5 (2020-Dec-17.0) TDB
Reference: JPL 36 (heliocentric ecliptic J2000)
Element | Value | Uncertainty (1-sigma) | Units |
e | .251926994794873 | 2.0529e-08 | |
a | 2.654578008742401 | 9.1408e-09 | au |
q | 1.98581814855137 | 5.4815e-08 | au |
i | 12.14286761622391 | 6.7629e-07 | deg |
node | 262.3007990776476 | 3.5726e-06 | deg |
peri | 165.8471495143563 | 6.4994e-06 | deg |
M | 41.28275739935152 | 3.6393e-06 | deg |
tp | 2459019.341856289574 (2020-Jun-18.84185629) | 1.544e-05 | TDB |
period | 1579.76200826105 4.33 | 8.1597e-06 2.234e-08 | d yr |
n | .2278824266677207 | 1.177e-09 | deg/d |
Q | 3.323337868933433 | 1.1444e-08 | au |
|
| | Orbit Determination Parameters
Additional Information
|